This is the latest recevied weather packets stored in our database for station/object KX4O-13. If no packets are shown the sender has not sent any weather packets the latest 10 day(s).
| Time | Temp. | Humidity | Pressure | Rain* | Wind** | Luminosity | Snow |
|---|---|---|---|---|---|---|---|
| 1777953954 | 12.78° C | 77% | 1010.9 hPa | 0 mm | - | 0 W/m² | - |
| 1777953654 | 12.78° C | 76% | 1010.8 hPa | 0 mm | - | 0 W/m² | - |
| 1777953354 | 12.78° C | 76% | 1010.8 hPa | 0 mm | - | 0 W/m² | - |
| 1777953056 | 12.78° C | 76% | 1010.7 hPa | 0 mm | - | 0 W/m² | - |
| 1777952754 | 13.33° C | 74% | 1010.8 hPa | 0 mm | - | 0 W/m² | - |
| 1777952454 | 13.89° C | 74% | 1010.8 hPa | 0 mm | - | 0 W/m² | - |
| 1777952154 | 13.89° C | 73% | 1010.8 hPa | 0 mm | - | 0 W/m² | - |
| 1777951854 | 13.89° C | 73% | 1010.9 hPa | 0 mm | - | 0 W/m² | - |
| 1777951554 | 13.89° C | 72% | 1010.9 hPa | 0 mm | - | 0 W/m² | - |
| 1777951254 | 14.44° C | 70% | 1011.1 hPa | 0 mm | - | 0 W/m² | - |
| 1777950954 | 14.44° C | 68% | 1011 hPa | 0 mm | - | 0 W/m² | - |
| 1777950656 | 15.56° C | 66% | 1010.9 hPa | 0 mm | - | 0 W/m² | - |
| 1777950354 | 16.11° C | 67% | 1011 hPa | 0 mm | - | 0 W/m² | - |
| 1777950054 | 16.11° C | 65% | 1011 hPa | 0 mm | - | 0 W/m² | - |
| 1777949754 | 16.11° C | 66% | 1011.1 hPa | 0 mm | - | 0 W/m² | - |
| 1777949454 | 16.11° C | 66% | 1011.1 hPa | 0 mm | - | 0 W/m² | - |
| 1777949154 | 16.11° C | 65% | 1011.1 hPa | 0 mm | - | 0 W/m² | - |
| 1777948854 | 16.67° C | 64% | 1011.1 hPa | 0 mm | - | 0 W/m² | - |
| 1777948554 | 16.67° C | 61% | 1011 hPa | 0 mm | - | 0 W/m² | - |
| 1777948256 | 16.67° C | 61% | 1011.1 hPa | 0 mm | - | 0 W/m² | - |
| 1777947954 | 17.22° C | 61% | 1011 hPa | 0 mm | - | 0 W/m² | - |
| 1777947654 | 17.22° C | 61% | 1010.9 hPa | 0 mm | - | 0 W/m² | - |
| 1777947354 | 17.22° C | 61% | 1010.9 hPa | 0 mm | - | 0 W/m² | - |
| 1777947054 | 17.78° C | 60% | 1010.9 hPa | 0 mm | - | 0 W/m² | - |
| 1777946754 | 17.78° C | 59% | 1011 hPa | 0 mm | - | 0 W/m² | - |
* Rain latest hour (hover to see other rain measurements)
** Current wind speed in m/s (hover to see current wind gust speed)